Location: Eurasberg
(48.3353°N, 11.0839°E)
Time: 11:18:46
(UTC+00:00)

Daily predictions for brighter satellites

Satellite Brightness Start Highest point End
(mag) Time Altitude Azimuth Time Altitude Azimuth Time Altitude Azimuth
Centaur D AC-29 4.1 19:31:49 10° SSE 19:34:53 12° SE 19:39:41 10° ESE
ERS-1 Rocket 3.6 19:33:32 10° SE 19:38:12 41° ENE 19:42:55 10° N
ATLAS 2AS CENTAUR R/B 4.4 19:32:02 10° WSW 19:38:52 41° NNW 19:45:29 10° NE
Cosmos 2279 Rocket 4.5 19:33:38 10° N 19:39:35 45° ENE 19:45:29 10° SE
CZ-4C R/B 3.5 19:36:06 10° NNE 19:39:52 53° ESE 19:43:45 10° S
Cosmos 494 Rocket 4.0 19:36:06 10° S 19:41:05 58° ESE 19:46:07 10° NNE
Cosmos 1743 2.5 19:39:10 10° N 19:42:48 81° E 19:46:24 10° SSE
Aureole 3 Rocket 3.4 19:38:42 10° N 19:42:52 85° W 19:48:39 10° S
SL-8 R/B 3.7 19:39:24 10° WSW 19:44:05 62° SSE 19:48:48 10° E
USA 245 3.6 19:45:06 10° SE 19:46:57 22° ENE 19:48:56 10° NNE
Okean-O 2.8 19:43:55 10° S 19:48:19 77° WSW 19:52:45 10° NNW
Cosmos 1634 Rocket 4.0 19:42:53 10° N 19:49:12 77° E 19:55:24 10° SSE
SL-16 R/B 3.0 19:44:38 10° SW 19:50:12 57° WNW 19:55:51 10° NNE
Cosmos 1603 4.3 19:48:04 10° S 19:53:13 37° ESE 19:58:24 10° NE
SPOT 5 2.7 19:48:48 10° SSE 19:53:20 79° ENE 19:57:43 10° NNW
Cosmos 2369 Rocket 2.6 19:50:39 10° NW 19:56:10 60° WSW 20:01:40 10° S
Cosmos 2263 4.4 19:51:33 10° NNW 19:57:15 78° WSW 20:02:58 10° SSE
Cosmos 1048 Rocket 4.0 19:52:44 10° S 19:57:47 59° ESE 20:02:49 10° NNE
Meteor 1-11 Rocket 4.2 19:54:02 10° N 19:59:33 49° ENE 20:05:04 10° SSE
Meteor 1-14 Rocket 4.4 19:55:40 10° NNW 20:01:34 88° W 20:07:32 10° S
Okean 1 4.3 19:58:59 10° SSE 20:02:17 28° E 20:05:40 10° NNE
Meteor 2-6 Rocket 4.2 20:02:20 10° S 20:07:54 88° E 20:13:24 10° NNE
USA 229 DEB 4.4 20:00:56 10° NW 20:08:15 61° WSW 20:16:09 10° SSE
USA 229 4.4 20:01:02 10° NW 20:08:22 61° WSW 20:16:17 10° SSE
Cosmos 1331 Rocket 4.0 20:04:03 10° NNW 20:09:19 78° ENE 20:14:10 12° SSE
Landsat 4 3.7 20:08:06 12° SSE 20:11:10 56° ENE 20:14:36 10° N
Cosmos 1536 2.9 20:10:39 10° N 20:14:31 59° E 20:17:51 13° SSE
Cosmos 1500 Rocket 4.0 20:10:46 10° N 20:14:55 44° ENE 20:18:20 14° SE
Cosmos 1110 Rocket 4.1 20:11:53 10° NNW 20:17:14 85° WSW 20:22:09 12° SSE
Cosmos 1726 1.6 20:15:38 10° N 20:18:46 85° W 20:21:30 13° S
USA 306 2.7 20:18:01 10° WNW 20:21:48 64° SSW 20:24:42 17° SE
USA 59 Rocket 0.9 20:18:38 10° NNW 20:22:11 39° NE 20:26:34 11° ESE
Lacrosse 4 Rocket 3.2 20:19:39 10° N 20:22:54 22° NE 20:26:11 10° E
NOSS 2-1 (E) 4.4 20:20:41 10° NNW 20:24:15 41° NE 20:28:35 12° ESE
Cosmos 1805 Rocket 4.0 20:21:13 10° N 20:25:29 48° ENE 20:28:44 16° SSE
BREEZE-M DEB (TANK) 4.2 20:13:44 10° SSW 20:26:59 39° SSE 20:30:54 10° E
Cosmos 1943 3.3 20:21:23 10° SSW 20:27:04 85° WNW 20:32:47 10° NNE
Cosmos 1733 3.6 20:23:45 10° N 20:27:05 40° ENE 20:29:15 18° SE
Cosmos 1842 Rocket 3.8 20:23:56 10° SSW 20:28:21 73° W 20:32:46 10° N
Okean 3 Rocket 4.1 20:24:17 10° NNW 20:28:36 58° W 20:32:53 10° S
Cosmos 2180 Rocket 4.5 20:23:02 10° N 20:29:14 76° E 20:34:44 13° SSE
Spot 2 Rocket 3.5 20:25:05 13° SSE 20:29:37 84° ENE 20:34:42 10° NNW
Resurs 01 Rocket 4.3 20:28:09 10° WSW 20:30:39 15° W 20:33:09 10° NW
ISS -2.4 20:29:14 10° W 20:32:10 28° SW 20:33:56 18° S
ARGOS Delta rocket 4.1 20:27:21 10° S 20:32:21 71° W 20:37:06 10° NNW
Landsat 5 3.9 20:32:35 10° NNE 20:36:05 35° E 20:38:13 20° SSE
NOSS 2-1 (D) 4.0 20:33:15 10° NNW 20:36:54 53° NE 20:40:42 16° ESE
Cosmos 1340 2.7 20:36:52 10° N 20:40:11 50° ENE 20:42:01 23° SE
SPOT 3 Rocket 3.5 20:36:08 15° SSE 20:40:28 90° WSW 20:45:39 10° NNW
Okean O Rocket 4.3 20:38:38 10° WSW 20:40:53 14° W 20:43:10 10° WNW
Sich 1 3.1 20:37:28 10° N 20:41:51 71° E 20:44:54 19° SSE
Meteor 2-9 Rocket 4.3 20:39:48 10° N 20:45:41 86° ENE 20:50:24 16° SSE
Meteor 1-27 Rocket 3.7 20:40:55 11° S 20:46:12 70° E 20:51:44 10° NNE
Cosmos 1697 Rocket 4.5 20:44:12 10° N 20:48:35 22° NE 20:52:56 10° E
USA 281 3.3 20:43:30 17° SE 20:48:45 76° ENE 20:55:21 10° NNW
Ariane Rocket 3.3 20:48:20 14° S 20:52:36 65° WSW 20:57:41 10° NNW
Meteor 2-4 Rocket 4.4 20:51:17 19° SSE 20:54:58 40° E 21:00:26 10° NNE
MetOp-A 3.9 20:53:25 21° SSE 20:56:27 72° ENE 21:01:24 10° N
GEOS 3 Rocket 3.8 20:52:57 10° NE 20:57:58 48° SE 21:02:53 10° SSW
Terra 2.8 20:59:36 12° SSW 21:03:39 42° W 21:08:09 10° NNW
MOS 1 Rocket 3.9 21:02:03 16° S 21:06:04 61° W 21:11:24 10° NNW
Cosmos 1340 Rocket 2.7 21:03:13 18° S 21:06:08 88° W 21:10:09 10° NNE
Cosmos 1743 Rocket 3.8 21:03:40 10° NNW 21:08:04 69° W 21:10:56 21° S
Cosmos 1092 Rocket 4.3 21:08:35 22° SSE 21:12:34 53° E 21:18:41 10° NNE
NOSS 2-1 (C) 3.5 21:09:36 10° NW 21:13:26 83° SW 21:16:11 26° SE
Lacrosse 5 rocket 3.7 21:10:30 10° NW 21:14:02 25° N 21:17:30 10° ENE
ARIANE 5 R/B 3.4 21:12:44 23° ESE 21:14:51 38° ENE 21:18:51 10° N
ERS-1 Rocket 4.5 21:12:41 10° SSW 21:17:04 30° W 21:21:28 10° NNW
Cosmos 2195 Rocket 4.4 21:19:02 21° S 21:23:15 73° E 21:29:21 10° NNE
Spot 1 4.4 21:20:39 10° N 21:24:42 62° WNW 21:28:04 15° SSW
Cosmos 1626 2.3 21:24:36 38° ESE 21:25:01 41° E 21:28:05 10° NNE
SL-8 R/B 3.6 21:21:42 10° W 21:26:28 87° N 21:31:16 10° E
Nadezhda 4 Rocket 4.2 21:21:16 12° SSW 21:26:59 71° W 21:33:16 10° N
Cosmos 614 Rocket 3.9 21:25:40 17° SSW 21:29:43 85° ESE 21:34:58 10° NNE
Cosmos 1833 Rocket 3.5 21:35:25 27° SE 21:37:08 33° ESE 21:42:05 10° NE
Cosmos 1151 Rocket 3.7 21:37:10 18° SSW 21:40:13 52° WNW 21:44:29 10° N
Cosmos 1975 2.9 21:37:45 10° NNW 21:41:41 67° W 21:43:09 36° SSW
Cosmos 2082 Rocket 4.3 21:41:17 10° ESE 21:42:08 11° E 21:43:20 10° E
Cosmos 1328 Rocket 3.4 21:45:12 36° S 21:46:56 80° E 21:51:16 10° NNE
Cosmos 1992 Rocket 4.2 21:45:38 10° NNW 21:50:49 63° WSW 21:53:10 32° S
Cosmos 1515 Rocket 4.1 21:51:40 35° SE 21:52:44 43° E 21:56:50 10° NNE
Cosmos 1656 3.7 21:50:12 10° NNW 21:55:37 69° WSW 21:58:06 33° S
Cosmos 1766 3.0 21:54:42 10° N 21:58:29 81° E 21:59:18 53° SSE
H-2A R/B 4.2 21:58:38 10° ENE 22:01:00 14° E 22:01:35 14° E
Lacrosse 4 Rocket 1.7 21:57:27 10° NW 22:01:27 53° WSW 22:02:26 42° SSW
Cosmos 1470 Rocket 3.5 21:58:16 10° N 22:02:45 87° E 22:04:11 43° SSE
H-2A R/B 2.5 22:02:15 43° SSE 22:03:32 74° ENE 22:07:48 10° N
Cosmos 2026 Rocket 4.2 22:02:10 21° SSW 22:06:29 67° W 22:12:43 10° N
Cosmos 1470 3.0 22:05:05 10° N 22:08:42 48° ENE 22:09:19 43° ESE
Cosmos 1633 Rocket 3.6 22:05:35 10° NNW 22:09:52 51° W 22:11:28 33° SSW
USA 59 Rocket 1.3 22:08:07 10° WNW 22:11:53 32° SW 22:13:07 28° SSW
Cosmos 1666 Rocket 4.5 22:07:53 10° NNW 22:11:54 39° W 22:13:32 28° SW
NOSS 3-3 (A) 3.7 22:08:04 16° SW 22:12:30 89° SE 22:18:57 10° NE
Orbus 7S? 3.2 22:13:47 48° S 22:14:29 57° SE 22:17:25 10° ENE
USA 267 4.2 22:09:44 10° ENE 22:15:05 26° SE 22:15:41 26° SE
Cosmos 1140 Rocket 3.7 22:19:18 39° SSE 22:20:54 54° ESE 22:26:00 10° NNE
CZ-2C R/B 4.1 22:17:04 10° N 22:21:30 56° WNW 22:23:38 28° SW
Cosmos 44 Rocket 3.2 22:18:29 10° NW 22:23:28 83° NE 22:25:16 39° SE
Cosmos 1818 3.9 22:21:17 12° SW 22:26:18 68° NW 22:31:47 10° NE
ALOS 2 2.7 22:26:21 44° SE 22:27:37 70° ENE 22:32:00 10° N
Cosmos 1933 Rocket 3.5 22:23:30 10° N 22:27:53 83° E 22:29:00 50° SSE
SAR-Lupe-3 4.3 22:27:46 71° S 22:28:06 84° WSW 22:31:39 10° NNW
NOSS 3-4 (A) 4.0 22:22:00 10° NW 22:28:46 74° NE 22:34:26 20° SE
S3M 4.2 22:22:26 10° N 22:28:49 67° ENE 22:31:50 33° SSE
NOSS 3-4 (C) 4.0 22:22:06 10° NW 22:28:52 73° NE 22:34:34 20° SE
BREEZE-M DEB (TANK) 3.1 22:31:06 54° SSE 22:31:11 54° SSE 22:37:40 10° ENE
Meteor 2-12 Rocket 4.5 22:29:07 31° SSW 22:32:13 81° W 22:38:26 10° N
Cosmos 1697 Rocket 2.6 22:27:35 10° NNW 22:33:15 83° WSW 22:35:28 38° SSE
Cosmos 724 4.4 22:32:09 37° S 22:34:11 55° ESE 22:39:52 10° NE
Cosmos 1553 Rocket 4.2 22:31:10 10° NNW 22:37:10 62° W 22:39:56 32° SSW
Cosmos 1674 2.6 22:37:26 58° WSW 22:37:49 64° W 22:41:18 10° N
Spot 2 4.3 22:37:38 45° S 22:39:05 81° WSW 22:44:02 10° NNW
Cosmos 1607 4.0 22:37:14 31° SSW 22:40:30 71° ESE 22:46:59 10° NE
Cosmos 2315 Rocket 4.4 22:34:25 10° N 22:40:38 57° ENE 22:43:42 30° SE
Cosmos 1980 Rocket 2.6 22:35:57 10° NNW 22:41:38 61° ENE 22:44:37 28° SE
NOSS 3-3 (C) 4.2 22:38:08 12° SW 22:43:18 66° NW 22:49:51 10° NE
In-Cosmos 22 4.4 22:44:20 38° SSE 22:46:28 62° E 22:52:07 10° NNE
Cosmos 2285 Rocket 4.0 22:44:29 35° S 22:47:15 74° ESE 22:53:36 10° NNE
Cosmos 407 Rocket 3.5 22:49:43 43° S 22:51:21 67° ESE 22:56:34 10° NNE
ARIANE 5 R/B 4.1 22:50:12 22° WSW 22:51:21 24° W 22:54:53 10° NW
USA 234 3.9 22:45:55 10° E 22:52:18 57° NNE 22:58:41 10° NW
Lacrosse 5 rocket 2.6 22:49:15 10° NW 22:53:14 40° NNE 22:57:04 10° E
Cosmos 1763 Rocket 3.8 22:48:10 10° NNW 22:53:28 61° ENE 22:55:49 32° SE
Cosmos 1908 2.9 22:50:36 10° NNW 22:54:11 70° W 22:54:20 69° WSW
Cosmos 1626 4.5 22:57:25 10° W 22:58:47 13° WNW 23:00:17 10° NW
Cosmos 2369 4.0 22:54:00 10° NNW 22:59:42 64° ENE 23:02:44 28° SE
Cosmos 1707 Rocket 4.4 23:01:55 34° ESE 23:02:50 38° E 23:06:57 10° NNE
Cosmos 540 Rocket 4.0 22:58:01 10° NNW 23:03:06 54° ENE 23:05:34 28° SE
Cosmos 2251 Rocket 3.4 23:01:47 43° S 23:03:29 76° ESE 23:08:47 10° NNE
COSMOS 2406 3.9 23:02:30 33° SE 23:04:04 39° ESE 23:09:24 10° NE
Meteor 1-13 Rocket 4.3 23:04:59 37° SSW 23:07:31 82° WNW 23:13:26 10° N
Cosmos 1758 3.6 23:04:34 10° N 23:08:21 54° ENE 23:08:57 48° ESE
SL-8 R/B 3.6 23:04:10 10° W 23:08:53 65° SSW 23:10:29 40° SE
Cosmos 1707 3.4 23:09:21 37° WSW 23:09:55 40° WNW 23:13:25 10° N
BREEZE-M DEB (TANK) 4.4 23:09:38 10° W 23:14:08 27° SE 23:17:50 10° ESE
Cosmos 1441 Rocket 3.1 23:10:55 10° NNW 23:14:26 59° W 23:14:30 59° WSW
Cosmos 2266 Rocket 4.1 23:12:28 33° SSW 23:15:19 69° W 23:21:36 10° N
SL-16 R/B 3.7 23:10:45 10° NNW 23:15:51 33° NE 23:20:55 10° ESE
OPS 6432 4.4 23:14:52 10° NW 23:17:59 64° NE 23:18:00 64° NE
Cosmos 1655 Rocket 4.0 23:15:56 36° S 23:18:43 89° W 23:25:10 10° N
Cosmos 1833 Rocket 3.5 23:17:04 19° WSW 23:20:53 46° NW 23:26:19 10° NNE
Cosmos 2082 Rocket 2.2 23:23:06 40° S 23:25:05 67° ESE 23:30:47 10° NNE
CZ-2C R/B 3.8 23:27:24 36° SSE 23:29:28 75° E 23:48:38 10° N
Cosmos 1300 2.3 23:27:06 10° N 23:30:41 89° E 23:30:52 80° SSE
Meteor 1-22 Rocket 4.3 23:26:56 10° NNW 23:32:08 56° W 23:33:54 39° SSW
Cosmos 2228 Rocket 3.0 23:31:44 53° S 23:32:48 87° E 23:37:20 10° N
Cosmos 2360 Rocket 4.2 23:28:54 10° N 23:33:33 25° NE 23:38:11 10° E
H-2A R/B 2.2 23:32:46 10° N 23:37:12 71° WNW 23:38:23 46° SW
Cosmos 1356 Rocket 3.5 23:38:18 52° SE 23:39:00 62° E 23:43:06 10° NNE
Cosmos 1733 Rocket 2.9 23:34:39 10° N 23:39:01 82° W 23:39:58 54° S
Helios 1A Rocket 4.1 23:39:27 24° ESE 23:41:02 35° ENE 23:44:34 10° N
Meteor 1-21 4.2 23:41:47 39° S 23:44:01 79° E 23:49:48 10° NNE
Cosmos 1400 Rocket 3.3 23:54:09 42° WSW 23:54:58 49° WNW 23:58:52 10° N
GP-B 3.9 23:51:32 10° NNW 23:55:40 40° W 23:56:49 33° WSW
